sat.trackr.live / text

‹ back to catalog

STARLINK-37285

NORAD 68626 · 2026-073AA

PAYLOAD ACTIVE UNKNOWN

§ Identity

Operator
Country
US
Launch date
2026-04-07
Launch site
AFWTR
Launch vehicle
Mass (kg)
RCS (m²)

Purposes: comms

External: N2YO · Heavens-Above · Gunter

§ Orbital elements

Epoch: 2026-09-20T03:49:14.397024Z

Period
93.91 min
Inclination
97.2849°
Eccentricity
0.0001822
Mean motion
15.33448836 rev/d
Perigee alt
464.3 km
Apogee alt
466.8 km
Semi-major
6,843.7 km
B*
2.6900e-4
RAAN
102.0207°
Arg perigee
91.1754°
Mean anomaly
268.9698°
Rev number
2,574

§ Raw data

STARLINK-372851 68626U 26073AA  26263.15919441  .00008620  00000+0  26900-3 0  99942 68626  97.2849 102.0207 0001822  91.1754 268.9698 15.33448836 25742

JSON: /api/v1/satellites/68626 · /tle

For live sub-satellite position, see the globe view (requires WebGL).

§ Visibility from observer

Set your observer location to see the next 7 days of passes ≥ 10°. The values pass through the URL so the page stays shareable.

No JS? Fill the form by hand. The geolocation button needs JavaScript.